www.pogodaiklimat.ru
ПОГОДА в Ходжакургане

Архив погоды в Ходжакургане (Ташкентская область, Узбекистан)

Время
и дата
03:20 28.05
03:40 28.05
03:50 28.05
04:00 28.05
04:10 28.05
04:20 28.05
04:30 28.05
04:40 28.05
04:50 28.05
05:00 28.05
05:20 28.05
05:30 28.05
05:50 28.05
06:00 28.05
06:10 28.05
06:20 28.05
06:30 28.05
06:40 28.05
06:50 28.05
07:00 28.05
07:10 28.05
07:20 28.05
07:30 28.05
07:40 28.05
07:50 28.05
08:00 28.05
08:10 28.05
08:20 28.05
08:30 28.05
08:40 28.05
08:50 28.05
09:00 28.05
09:10 28.05
09:20 28.05
09:30 28.05
09:40 28.05
09:50 28.05
10:00 28.05
10:10 28.05
10:20 28.05
10:30 28.05
10:40 28.05
10:50 28.05
11:00 28.05
11:10 28.05
11:20 28.05
11:30 28.05
11:40 28.05
11:50 28.05
12:00 28.05
12:10 28.05
12:20 28.05
12:30 28.05
13:00 28.05
13:10 28.05
13:20 28.05
13:30 28.05
13:40 28.05
13:50 28.05
14:00 28.05
14:20 28.05
14:30 28.05
14:40 28.05
14:50 28.05
15:00 28.05
15:10 28.05
15:20 28.05
15:30 28.05
15:40 28.05
15:50 28.05
16:00 28.05
16:10 28.05
16:20 28.05
16:30 28.05
16:40 28.05
16:50 28.05
17:00 28.05
17:10 28.05
17:20 28.05
17:40 28.05
17:50 28.05
18:00 28.05
18:10 28.05
18:20 28.05
18:30 28.05
18:40 28.05
18:50 28.05
19:00 28.05
19:20 28.05
19:30 28.05
19:40 28.05
19:50 28.05
20:00 28.05
20:20 28.05
20:30 28.05
20:50 28.05
21:00 28.05
21:10 28.05
21:30 28.05
21:40 28.05
22:00 28.05
22:10 28.05
22:20 28.05
22:30 28.05
22:40 28.05
22:50 28.05
23:00 28.05
23:10 28.05
23:20 28.05
23:30 28.05
23:50 28.05
00:00 29.05
00:10 29.05
00:30 29.05
00:40 29.05
01:00 29.05
01:10 29.05
01:20 29.05
01:30 29.05
01:40 29.05
01:50 29.05
02:10 29.05
02:20 29.05
02:30 29.05
02:40 29.05
02:50 29.05
03:00 29.05
03:10 29.05
03:20 29.05
03:30 29.05
03:40 29.05
03:50 29.05
04:00 29.05
04:10 29.05
04:20 29.05
04:30 29.05
04:50 29.05
05:00 29.05
05:10 29.05
05:30 29.05
05:40 29.05
05:50 29.05
06:00 29.05
06:10 29.05
Ветер
(напр.,м/с)
Видимость Явления Солнечная радиация
(Вт/м2)
Т
(С)
Тd
(С)
f
(%)
Тe
(С)
Тes
(С)
Комфортность P
(гПа)
Po
(гПа)
Тmin
(С)
Tmax
(С)
R
(мм)
С +15.7 +5.0 49 1004.0 946.5 +16.0 +15.6
С +15.6 +5.1 49 1004.0 946.5 +15.7 +15.6
С +15.6 +5.1 50 1004.0 946.5 +15.9 +15.6
С +15.8 +4.8 48 1004.1 946.6 +15.8 +15.5
С +16.3 +4.3 45 1004.1 946.6 +16.3 +15.8
С +17.2 +3.7 41 1004.1 946.6 +17.2 +16.3
С +17.0 +3.5 41 1004.1 946.6 +17.2 +16.9
С +16.8 +3.9 42 1004.1 946.6 +17.0 +16.8
С +16.7 +3.6 42 1004.2 946.7 +16.8 +16.5
С +17.0 +3.4 40 1004.3 946.8 +16.9 +16.7
С +17.1 +3.7 41 1004.4 946.9 +17.3 +17.1
С +17.2 +3.7 40 1004.5 947.0 +17.2 +17.1
С +17.4 +4.2 41 1004.6 947.1 +17.4 +17.2
С +17.1 +4.6 43 1004.8 947.3 +17.4 +17.1
С +17.4 +4.9 44 1004.9 947.4 +17.4 +17.1
С +18.3 +4.0 39 1004.8 947.3 +18.3 +17.4
С +18.5 +4.5 40 1004.8 947.3 +18.5 +18.3
С +19.0 +4.3 38 1004.7 947.2 +19.0 +18.5
С +19.0 +4.8 39 1004.7 947.2 +19.0 +19.0
С +19.6 +4.1 36 1004.7 947.2 +19.6 +19.0
С +19.9 +5.0 38 1004.7 947.2 +19.9 +19.6
С +20.4 +5.2 37 1004.8 947.3 +20.4 +19.9
С +20.6 +5.7 38 1004.8 947.3 +20.6 +20.4
С +20.6 +5.3 37 1004.9 947.4 +20.7 +20.6
С +21.3 +6.9 39 1004.9 947.4 +20.9 +20.6
С +21.3 +6.9 39 1005.0 947.5 +21.3 +20.9
С +21.9 +6.8 38 1005.0 947.5 +21.9 +21.3
С +22.5 +7.2 37 1005.0 947.5 +22.5 +21.9
С +22.7 +6.1 34 1005.0 947.5 +22.7 +22.4
С +22.5 +6.3 35 1005.1 947.6 +22.7 +22.5
С +22.5 +5.4 33 1005.1 947.6 +22.6 +22.5
С +23.3 +8.3 38 1005.0 947.5 +23.3 +22.5
С +23.8 +6.0 32 1005.0 947.5 +23.9 +23.3
С +24.3 +6.3 31 1005.0 947.5 +24.4 +23.8
С +24.1 +6.9 33 1004.9 947.4 +24.3 +24.0
С +24.2 +7.6 35 1005.0 947.5 +24.2 +24.0
С +24.3 +7.9 35 1005.0 947.5 +24.3 +24.2
С +24.3 +7.5 34 1005.1 947.6 +24.3 +24.1
С +24.8 +6.9 32 1005.2 947.7 +25.0 +24.3
С +25.3 +6.7 30 1005.2 947.7 +25.4 +24.8
С +25.4 +5.7 28 1005.3 947.8 +25.5 +25.3
С +25.2 +4.7 27 1005.3 947.8 +25.4 +25.1
С +25.7 +5.3 27 1005.3 947.8 +25.7 +25.2
С +25.7 +3.4 24 1005.2 947.7 +25.8 +25.6
С +25.5 +4.3 26 1005.3 947.8 +25.7 +25.5
С +25.6 +5.5 27 1005.3 947.8 +26.0 +25.5
С +25.3 +5.8 29 1005.3 947.8 +25.6 +25.3
С +25.7 +5.6 28 1005.3 947.8 +25.8 +25.3
С +25.5 +6.1 29 1005.2 947.7 +25.7 +25.2
С +25.7 +6.7 30 1005.2 947.7 +25.9 +25.5
С +25.6 +6.5 30 1005.2 947.7 +26.0 +25.6
С +25.4 +5.8 28 1005.3 947.8 +25.6 +25.3
С +25.8 +4.4 25 1005.3 947.8 +25.7 +25.4
С +26.1 +3.3 23 1005.3 947.8 +26.6 +26.1
С +25.4 +2.6 23 1005.3 947.8 +26.1 +25.4
С +25.3 +3.7 25 1005.4 947.9 +25.4 +25.2
С +25.1 +4.3 26 1005.4 947.9 +25.3 +25.0
С +25.2 +4.4 26 1005.3 947.8 +25.6 +25.1
С +25.3 +4.3 26 1005.3 947.8 +25.3 +25.1
С +25.3 +4.3 26 1005.3 947.8 +25.4 +25.1
С +25.2 +3.8 25 1005.2 947.7 +25.2 +24.8
С +26.0 +3.5 23 1005.2 947.7 +26.0 +25.2
С +25.2 +6.2 30 1005.1 947.6 +26.0 +25.1
С +25.7 +6.3 29 1005.2 947.7 +25.7 +25.2
С +25.9 +5.4 27 1005.1 947.6 +26.2 +25.7
С +25.3 +3.7 25 1005.0 947.5 +26.1 +25.3
С +25.6 +6.8 30 1004.9 947.4 +25.9 +25.3
С +25.2 +5.2 27 1004.9 947.4 +25.6 +25.2
С +25.1 +6.0 29 1004.9 947.4 +25.2 +24.7
С +24.9 +6.5 31 1004.9 947.4 +25.1 +24.5
С +25.5 +4.8 26 1005.0 947.5 +25.5 +24.9
С +25.2 +5.6 28 1004.9 947.4 +25.7 +25.2
С +25.3 +4.0 25 1004.8 947.3 +25.4 +25.2
С +25.2 +3.9 25 1004.8 947.3 +25.5 +25.2
С +25.1 +3.0 24 1004.9 947.4 +25.2 +25.1
С +25.0 +3.6 25 1004.9 947.4 +25.1 +25.0
С +25.0 +4.1 26 1004.8 947.3 +25.1 +25.0
С +24.9 +3.8 25 1004.8 947.3 +25.0 +24.9
С +24.6 +4.4 27 1004.8 947.3 +24.9 +24.6
С +24.2 +4.5 28 1004.9 947.4 +24.4 +24.2
С +24.1 +4.2 28 1005.0 947.5 +24.2 +24.1
С +23.9 +5.0 29 1005.0 947.5 +24.1 +23.9
С +23.6 +4.8 30 1005.0 947.5 +23.9 +23.6
С +23.4 +5.5 31 1005.1 947.6 +23.6 +23.4
С +23.0 +5.5 32 1005.2 947.7 +23.4 +23.0
С +22.8 +4.6 30 1005.2 947.7 +23.0 +22.8
С +22.5 +4.6 31 1005.2 947.7 +22.8 +22.5
С +22.2 +5.0 33 1005.3 947.8 +22.5 +22.2
С +21.3 +5.9 36 1005.4 947.9 +21.7 +21.4
С +20.9 +6.7 40 1005.4 947.9 +21.3 +20.9
С +20.8 +6.2 38 1005.6 948.0 +20.9 +20.8
С +20.4 +6.2 39 1005.6 948.0 +20.8 +20.4
С +20.3 +6.3 40 1005.6 948.0 +20.4 +20.3
С +19.5 +6.8 43 1005.7 948.1 +19.9 +19.5
С +19.0 +7.1 46 1005.7 948.1 +19.5 +19.0
С +18.3 +7.8 50 1005.9 948.3 +18.3 +18.1
С +18.6 +7.9 50 1006.0 948.4 +18.6 +18.3
С +18.0 +8.2 53 1006.1 948.5 +18.6 +18.0
С +17.6 +8.5 55 1006.1 948.5 +17.9 +17.5
С +17.6 +8.3 54 1006.2 948.6 +17.7 +17.4
С +17.1 +8.6 57 1006.2 948.6 +17.6 +17.1
С +17.2 +8.0 55 1006.2 948.6 +17.1 +16.8
С +16.9 +8.4 57 1006.2 948.6 +17.3 +16.8
С +16.0 +9.5 65 1006.2 948.6 +16.9 +16.0
С +15.8 +9.6 67 1006.2 948.6 +16.0 +15.8
С +15.5 +9.8 69 1006.2 948.6 +15.8 +15.5
С +15.3 +10.6 73 1006.2 948.6 +15.6 +15.3
С +15.2 +11.0 76 1006.2 948.6 +15.3 +15.2
С +14.7 +11.4 81 1006.2 948.6 +15.2 +14.7
С +14.5 +10.9 79 1006.3 948.7 +14.8 +14.5
С +15.4 +9.1 66 1006.3 948.7 +15.7 +15.4
С +15.0 +9.4 69 1006.3 948.7 +15.4 +15.0
С +15.2 +8.9 66 1006.3 948.7 +15.2 +14.7
С +15.0 +9.3 69 1006.2 948.6 +15.1 +15.0
С +14.8 +9.3 70 1006.2 948.6 +15.0 +14.7
С +14.6 +9.3 70 1006.1 948.5 +15.2 +14.6
С +14.7 +9.1 69 1006.1 948.5 +15.0 +14.6
С +14.8 +9.0 68 1006.0 948.4 +15.0 +14.7
С +14.6 +8.8 68 1006.0 948.4 +14.8 +14.6
С +14.5 +8.7 68 1006.0 948.4 +14.6 +14.5
С +14.2 +8.6 69 1006.0 948.4 +14.6 +14.4
С +14.2 +8.4 68 1006.0 948.4 +14.3 +14.1
С +14.0 +8.5 69 1006.0 948.4 +14.2 +14.0
С +14.3 +8.2 66 1006.0 948.4 +14.4 +14.0
С +14.2 +8.3 68 1005.9 948.3 +14.3 +14.2
С +14.2 +8.3 68 1005.9 948.3 +14.3 +14.2
С +14.1 +8.4 69 1005.8 948.2 +14.2 +14.1
С +14.2 +8.1 67 1005.8 948.2 +14.2 +14.1
С +14.1 +8.3 68 1005.8 948.2 +14.3 +14.1
С +14.1 +8.3 68 1005.8 948.2 +14.2 +14.1
С +14.1 +8.2 67 1005.7 948.1 +14.2 +14.0
С +14.2 +8.3 68 1005.6 948.0 +14.2 +14.1
С +14.3 +8.2 67 1005.6 948.0 +14.3 +14.2
С +14.5 +8.0 65 1005.6 948.0 +14.5 +14.3
С +14.7 +7.7 63 1005.6 948.0 +14.7 +14.5
С +14.7 +7.5 62 1005.5 947.9 +14.7 +14.6
С +14.9 +7.1 60 1005.6 948.0 +15.0 +14.8
С +15.0 +7.1 59 1005.6 948.0 +15.0 +14.9
С +14.8 +7.3 61 1005.7 948.1 +15.0 +14.8
С +15.0 +7.8 62 1005.8 948.2 +15.0 +14.9
С +15.3 +7.9 61 1005.8 948.2 +15.3 +15.0
С +15.8 +7.7 58 1005.8 948.2 +15.8 +15.3
С +16.3 +7.8 57 1005.8 948.2 +16.2 +15.8
С +16.6 +7.8 56 1005.8 948.2 +16.6 +16.3
Местоположение метеостанции Ходжакурган (Ташкентская область, Узбекистан): широта 41.44 долгота 69.44 высота над уровнем моря 0 м.
В архиве по умолчанию представлена погода в Ходжакургане за последние 1-2 суток. Обновление информации о фактической погоде в базе происходит ежечасно! Архивные данные за месяц целиком и за предыдущие месяцы Вы можете получить, выбрав интересующий диапазон дат из раскрывающегося списка и нажав кнопку "Ввод!".
*Определитесь, кто Вы:
Внимание! Время в таблицах - местное (без учета летнего времени). Для получения всемирного времени необходимо вычесть поправку, которая равна 5 ч.
Смотрите также архив погоды на ближайших метеорологических станциях:
Партнеры нашего сайта:      
Пояснения к столбцам:
  • Ветер - указаны скорость ветра в м/с - средняя за 10 мин, порывы в срок и между сроками (в фигурных скобках) и направление, откуда дует ветер: С - северный,
  • СВ - северо-восточный, В - восточный, ЮВ - юго-восточный, Ю - южный, ЮЗ - юго-западный, З - западный, СЗ - северо-западный.
  • Видимость - горизонтальная дальность видимости в метрах или километрах. При видимости от 1 до 10 км при отсутствии осадков обычно наблюдается дымка, при ухудшении видимости до 1 км и менее - туман. В сухую погоду видимость может ухудшаться дымом, пылью или мглою.
  • Явления - указаны атмосферные явления, наблюдавшиеся в срок или в последний час перед сроком.
  • Солнечная радиация - мощность потока солнечного излучения на поверхность земли и предметов в Вт/м2.
  • T - Температура воздуха - температура, измеренная на высоте 2 м над землей.
  • Td - Температура точки росы - температура, при понижении до которой содержащийся в воздухе водяной пар достигнет насыщения.
  • f - Относительная влажность воздуха - влажноcть воздуха, измеренная на высоте 2 м над землей.
  • Te - Эффективная температура - температура, которую ощущает одетый по сезону человек в тени. Характеристика душности погоды. При расчете учитывается влияние влажности воздуха и скорости ветра на теплоощущения человека.
  • Tes - Эффективная температура на солнце - температура, которую ощущает человек, с поправкой на солнечный нагрев. Характеристика знойности погоды. Зависит от высоты солнца над горизонтом, облачности и скорости ветра. Ночью, в пасмурную погоду, а также при ветре 12 м/с и более поправка равна нулю.
  • P - Атмосферное давление - приведенное к уровню моря атмосферное давление.
  • Po - Атмосферное давление - измеренное на уровне метеостанции атмосферное давление.
  • Tmin - Минимальная температура - минимум температуры воздуха на высоте 2 м над землей.
  • Tmax - Максимальная температура - максимум температуры воздуха на высоте 2 м над землей.
  • R - Количество осадков - Количество выпавших осадков за период времени, мм. При наведении курсора мыши на число - период времени, за который выпало указанное количество осадков.